Regional Weather Roundup
Issued by NWS

Home | Current Version | Previous Version | Text Only | Print | Product List | Glossary Off
Versions: 1 2 3 4 5 6 7 8 9 10 11 12 13 14 15 16 17 18 19 20 21 22 23 24 25 26 27 28 29 30 31 32 33 34 35 36 37 38 39 40 41 42 43 44 45 46 47 48 49 50

000
ASUS43 KDTX 301701
RWRMI
MICHIGAN HOURLY REGIONAL WEATHER ROUNDUP
NATIONAL WEATHER SERVICE DETROIT/PONTIAC MI
100 PM EDT MON MAR 30 2015

NOTE: "FAIR" INDICATES FEW OR NO CLOUDS BELOW 12,000 FEET WITH NO
SIGNIFICANT WEATHER AND/OR OBSTRUCTION TO VISIBILITY.

MIZ047>049-052>055-059>063-066>070-074>076-081>083-301800-
SOUTHEAST LOWER MICHIGAN

CITY           SKY/WX    TMP DP  RH WIND       PRES   REMARKS
ADRIAN         MOSUNNY   52  25  35 NW23G29   29.95F
ALMA           MOSUNNY   51  26  36 W25G36    29.88S
ANN ARBOR      MOSUNNY   54  22  28 NW23G39   29.91F
BAD AXE        CLOUDY    44  31  59 NW20G26   29.83R
CARO           CLOUDY    46  31  55 NW22      29.85R
DETROIT CITY   PTSUNNY   54  24  31 W21G40    29.88F
DETROIT        MOSUNNY   53  24  32 W23G40    29.91F
FLINT          PTSUNNY   54  28  36 W30G41    29.87S
GROSSE ILE     MOSUNNY   54  19  26 W17G29    29.90F
HILLSDALE      MOSUNNY   52  24  33 W25G32    29.96S
HOWELL         MOSUNNY   52  26  36 W29G36    29.89S

CITY           SKY/WX    TMP DP  RH WIND       PRES   REMARKS
JACKSON        MOSUNNY   52  25  35 W18G35    29.93F
LAMBERTVILLE   SUNNY     54  23  30 W16G25    29.96S
LANSING        MOSUNNY   51  28  41 W26G37    29.91F
LAPEER         CLOUDY    48  27  43 W18G35    29.85S
MASON          PTSUNNY   50  26  38 W23G37    29.91F
MONROE         SUNNY     54  28  37 W23G31    29.92F
MT. CLEMENS    PTSUNNY   51  25  36 W20G35    29.83F
PONTIAC        PTSUNNY   51  25  36 W25G37    29.87S
PORT HOPE        N/A     37  32  82 NW13      29.82R WCI  29
PORT HURON     CLOUDY    50  28  43 NW24G35   29.84S
TRI CITIES     CLOUDY    49  28  44 NW18G26   29.85S
TROY           MOSUNNY   53  24  32 W21G32    29.89F
SAGINAW HB     CLOUDY    50  28  43 W25G36    29.85S
$$
MIZ043>046-050>051-056>058-064>065-071>073-077>080-301800-
SOUTHWEST LOWER MICHIGAN

CITY           SKY/WX    TMP DP  RH WIND       PRES   REMARKS
BATTLE CREEK   MOSUNNY   53  26  35 W26G39    29.96F
BENTON HARBOR  SUNNY     47  31  53 W20       30.03F
BIG RAPIDS     MOSUNNY   47  29  49 NW12G20   29.89S
COLDWATER      MOSUNNY   52  24  33 W21G32    29.97F
FREMONT        FAIR      48  28  46 W17G23    29.94R
HOLLAND        SUNNY     48  31  51 W21G30    29.99F
GRAND RAPIDS   MOSUNNY   51  31  46 W21       29.95S
IONIA            N/A     53  27  36 W28G35    29.91R
KALAMAZOO      MOSUNNY   50  27  40 NW23      29.98F
LUDINGTON      SUNNY     45  31  60 NW13G20   29.95S
MARSHALL       PTSUNNY   52  26  36 W24G36    29.95S
MOUNT PLEASANT PTSUNNY   49  28  42 W12G22    29.87R
MUSKEGON       MOSUNNY   48  30  49 W17G23    29.97F
SOUTH HAVEN    SUNNY     47  31  54 W14G25    30.02S
$$
MIZ016>042-301800-
NORTHERN LOWER MICHIGAN

CITY           SKY/WX    TMP DP  RH WIND       PRES   REMARKS
ALPENA         CLOUDY    38  23  55 NW20G29   29.82R WCI  28
BEAVER ISLAND  CLOUDY    35  26  69 NW12G17   29.90R WCI  27
BELLAIRE       PTSUNNY   38  26  61 NW9G17    29.91R WCI  32
CADILLAC       PTSUNNY   41  29  62 W20G28    29.88R
CHARLEVOIX     PTSUNNY   37  31  79 NW13G22   29.93R WCI  28
FRANKFORT      PTSUNNY   43  26  50 N6        29.94R
GAYLORD        PTSUNNY   34  26  72 NW14G23   29.84R WCI  25
GRAYLING       MOSUNNY   40  23  51 NW16G28   29.86R WCI  31
HARBOR SPRINGS CLOUDY    35  25  67 W13G18    29.88R WCI  26
HOUGHTON LAKE  CLOUDY    41  27  57 NW14G25   29.86R
MANISTEE       SUNNY     43  28  56 NW15      29.95R
OSCODA         CLOUDY    40  30  65 NW14G28   29.82R WCI  33
PELLSTON       CLOUDY    35  24  64 NW21G32   29.87R WCI  24
ROGERS CITY    PTSUNNY   37  28  69 NW20G28   29.84R WCI  27
TRAVERSE CITY  MOSUNNY   41  25  53 N14       29.91R
$$
MIZ007>008-015-301800-
EASTERN UPPER MICHIGAN

CITY           SKY/WX    TMP DP  RH WIND       PRES   REMARKS
KINROSS        CLOUDY    34  25  69 NW18G26   29.82R WCI  23
MACKINAC ISLAN CLOUDY    34  25  68 NW16G25   29.84R WCI  24
NEWBERRY       CLOUDY    32  23  69 NW13G28   29.85R WCI  23
S. S. MARIE    CLOUDY    33  25  72 NW16G25   29.81R WCI  23
$$
MIZ004>006-011>014-085-301800-
CENTRAL UPPER MICHIGAN

CITY           SKY/WX    TMP DP  RH WIND       PRES   REMARKS
MANISTIQUE     PTSUNNY   36  27  69 NW16G22   29.88R WCI  26
ESCANABA       MOSUNNY   45  23  42 N10G20    29.89R
MENOMINEE      SUNNY     48  25  40 NW10G20   29.90S
SAWYER-GWINN   PTSUNNY   36  28  75 NE10      29.88R WCI  28
$$
MIZ001>003-009>011-084-301800-
WESTERN UPPER MICHIGAN

CITY           SKY/WX    TMP DP  RH WIND       PRES   REMARKS
IRON MOUNTAIN  SUNNY     45  22  40 NW20G25   29.88R
HOUGHTON       MOSUNNY   36  25  64 W16       29.89R WCI  26
COPPER HARBOR    N/A     33  24  69 NE9       29.91R WCI  25
IRONWOOD       SUNNY     45  25  45 W10       29.89S
$$

ABBREVIATIONS USED IN REMARKS
   TC - TEMPERATURE IN CELSIUS
  WCI - WIND CHILL INDEX
   HX - HEAT INDEX
  VSB - VISIBILITY




USA.gov is the U.S. government's official web portal to all federal, state and local government web resources and services.